QPF
0.00 0.00 0.00 0.00 0.00 0.00 0.00 0.00 0.01 0.00 0.00 0.00 0.00 0.01 0.02 0.11 0.02 0.04 0.07 0.13 0.07 0.00 0.00 0.00 0.00 0.00 0.00 0.00 0.00 0.00 0.00 0.00 0.00 0.00 0.00 0.00 0.00 0.00
0.00 0.00 0.00 0.01 0.01 0.01 0.01 0.00 0.02 0.00 0.00 0.00 0.00 0.00 0.01 0.00 0.00 0.00 0.05 0.04 0.01 0.00 0.00 0.01 0.00 0.00 0.00 0.00 0.00 0.00 0.00 0.00 0.00 0.00 0.00 0.00 0.00 0.00
0.00 0.00 0.00 0.01 0.08 0.06 0.03 0.00 0.01 0.00 0.00 0.00 0.00 0.00 0.03 0.01 0.01 0.10 0.06 0.01 0.03 0.03 0.02 0.01 0.00 0.00 0.00 0.00 0.00 0.00 0.00 0.00 0.00 0.00 0.00 0.00 0.00 0.00
0.00 0.00 0.00 0.00 0.00 0.02 0.04 0.02 0.01 0.02 0.00 0.00 0.00 0.00 0.00 0.08 0.02 0.09 0.07 0.06 0.05 0.02 0.01 0.00 0.00 0.00 0.00 0.00 0.00 0.00 0.00 0.00 0.00 0.00 0.00 0.00 0.00 0.00
0.00 0.00 0.00 0.00 0.00 0.00 0.02 0.00 0.01 0.01 0.00 0.00 0.00 0.00 0.00 0.01 0.01 0.06 0.06 0.05 0.03 0.00 0.00 0.00 0.00 0.00 0.00 0.00 0.00 0.00 0.00 0.00 0.00 0.00 0.00 0.00 0.00 0.00
0.00 0.00 0.00 0.00 0.00 0.00 0.00 0.00 0.00 0.00 0.01 0.00 0.00 0.02 0.01 0.01 0.07 0.04 0.04 0.02 0.00 0.00 0.00 0.00 0.00 0.00 0.00 0.00 0.00 0.00 0.00 0.00 0.00 0.00 0.00 0.00 0.00 0.00
0.00 0.00 0.00 0.00 0.00 0.00 0.00 0.00 0.01 0.00 0.01 0.00 0.00 0.02 0.03 0.00 0.02 0.05 0.02 0.00 0.00 0.00 0.00 0.00 0.00 0.00 0.00 0.00 0.00 0.00 0.00 0.00 0.00 0.00 0.00 0.00 0.00 0.00
0.00 0.00 0.00 0.00 0.00 0.00 0.00 0.01 0.04 0.01 0.00 0.00 0.00 0.03 0.04 0.01 0.03 0.03 0.00 0.00 0.00 0.00 0.00 0.00 0.00 0.00 0.00 0.00 0.00 0.00 0.00 0.00 0.00 0.00 0.00 0.00 0.00 0.00
0.06 0.02 0.00 0.00 0.00 0.00 0.01 0.02 0.04 0.05 0.02 0.02 0.00 0.01 0.03 0.08 0.06 0.03 0.01 0.00 0.00 0.00 0.00 0.00 0.00 0.00 0.00 0.00 0.00 0.00 0.00 0.00 0.00 0.00 0.00 0.00 0.00 0.00
0.01 0.00 0.00 0.00 0.01 0.04 0.02 0.01 0.02 0.03 0.05 0.04 0.02 0.04 0.03 0.04 0.02 0.03 0.01 0.00 0.00 0.00 0.00 0.00 0.00 0.00 0.00 0.00 0.00 0.00 0.00 0.00 0.00 0.00 0.00 0.00 0.00 0.00
0.02 0.00 0.00 0.00 0.04 0.19 0.14 0.04 0.02 0.00 0.01 0.03 0.04 0.08 0.08 0.07 0.06 0.04 0.03 0.03 0.00 0.00 0.00 0.00 0.00 0.00 0.00 0.00 0.00 0.00 0.00 0.00 0.00 0.00 0.00 0.00 0.00 0.00
0.00 0.01 0.00 0.00 0.03 0.17 0.22 0.15 0.10 0.09 0.08 0.05 0.04 0.04 0.05 0.05 0.04 0.02 0.01 0.01 0.01 0.00 0.00 0.00 0.00 0.00 0.00 0.00 0.00 0.00 0.00 0.00 0.00 0.00 0.00 0.00 0.00 0.00
0.00 0.00 0.01 0.12 0.16 0.15 0.30 0.15 0.13 0.13 0.10 0.07 0.04 0.03 0.02 0.03 0.02 0.02 0.01 0.00 0.00 0.00 0.00 0.00 0.00 0.00 0.00 0.00 0.00 0.00 0.00 0.00 0.00 0.00 0.00 0.00 0.00 0.00
0.00 0.00 0.00 0.01 0.07 0.10 0.10 0.13 0.15 0.08 0.05 0.04 0.03 0.03 0.02 0.02 0.01 0.01 0.00 0.00 0.00 0.00 0.00 0.00 0.00 0.00 0.00 0.00 0.00 0.00 0.00 0.00 0.00 0.00 0.00 0.00 0.00 0.00
0.00 0.00 0.00 0.00 0.00 0.03 0.04 0.07 0.13 0.12 0.10 0.08 0.05 0.02 0.01 0.00 0.00 0.00 0.00 0.00 0.00 0.00 0.00 0.00 0.00 0.00 0.00 0.00 0.00 0.00 0.00 0.00 0.00 0.00 0.00 0.00 0.00 0.00
0.00 0.00 0.00 0.00 0.00 0.01 0.02 0.02 0.04 0.06 0.11 0.09 0.03 0.01 0.01 0.01 0.01 0.00 0.00 0.00 0.00 0.00 0.00 0.00 0.00 0.00 0.00 0.00 0.00 0.00 0.00 0.00 0.00 0.00 0.00 0.00 0.00 0.00
0.00 0.00 0.00 0.00 0.00 0.00 0.01 0.02 0.01 0.03 0.03 0.02 0.01 0.00 0.00 0.00 0.00 0.00 0.00 0.00 0.00 0.00 0.00 0.00 0.00 0.00 0.00 0.00 0.00 0.00 0.00 0.00 0.00 0.00 0.00 0.00 0.00 0.00
0.00 0.00 0.00 0.00 0.01 0.01 0.01 0.01 0.00 0.01 0.00 0.00 0.00 0.00 0.00 0.00 0.00 0.00 0.00 0.00 0.00 0.00 0.00 0.00 0.00 0.00 0.00 0.00 0.00 0.00 0.00 0.00 0.00 0.00 0.00 0.00 0.00 0.00
0.01 0.00 0.00 0.00 0.00 0.01 0.00 0.01 0.01 0.00 0.00 0.00 0.00 0.00 0.00 0.00 0.00 0.00 0.00 0.00 0.00 0.00 0.00 0.00 0.00 0.00 0.00 0.00 0.00 0.00 0.00 0.00 0.00 0.00 0.00 0.00 0.00 0.00
0.02 0.01 0.02 0.01 0.02 0.01 0.01 0.00 0.00 0.00 0.00 0.00 0.00 0.00 0.00 0.00 0.00 0.00 0.00 0.00 0.00 0.00 0.00 0.00 0.00 0.00 0.00 0.00 0.00 0.00 0.00 0.00 0.00 0.00 0.00 0.00 0.00 0.00
0.00 0.02 0.02 0.03 0.01 0.00 0.01 0.01 0.01 0.00 0.00 0.00 0.00 0.00 0.00 0.00 0.00 0.00 0.00 0.00 0.00 0.00 0.00 0.00 0.00 0.00 0.00 0.00 0.00 0.00 0.00 0.00 0.00 0.00 0.00 0.00 0.00 0.00
0.00 0.00 0.00 0.00 0.00 0.00 0.00 0.00 0.00 0.00 0.00 0.00 0.00 0.00 0.00 0.00 0.00 0.00 0.00 0.00 0.00 0.00 0.00 0.00 0.00 0.00 0.00 0.00 0.00 0.00 0.00 0.00 0.00 0.00 0.00 0.00 0.00 0.00
0.00 0.00 0.00 0.00 0.00 0.00 0.00 0.00 0.00 0.00 0.00 0.00 0.00 0.00 0.00 0.00 0.00 0.00 0.00 0.00 0.00 0.00 0.00 0.00 0.00 0.00 0.00 0.00 0.00 0.00 0.00 0.00 0.00 0.00 0.00 0.00 0.00 0.00
MSLP
1016.85 1016.94 1017.17 1017.05 1017.19 1017.25 1017.41 1017.57 1017.75 1018.06 1017.69 1016.94 1016.72 1016.03 1015.98 1016.10 1016.29 1016.39 1016.67 1016.95 1017.20 1017.56 1017.82 1017.96 1018.11 1018.30 1018.45 1018.54 1018.62 1018.70 1018.68 1018.69 1018.75 1018.73 1018.63 1018.51 1018.31 1018.15
1016.48 1016.57 1016.69 1016.77 1016.74 1016.76 1016.87 1016.98 1017.19 1017.35 1017.44 1016.88 1016.52 1016.08 1015.99 1015.97 1016.23 1016.53 1016.67 1017.08 1017.52 1017.64 1017.80 1018.08 1018.28 1018.56 1018.73 1018.85 1018.92 1019.04 1019.07 1019.06 1019.09 1019.14 1019.08 1018.99 1018.84 1018.67
1016.14 1016.26 1016.27 1016.29 1016.44 1016.43 1016.47 1016.64 1016.86 1016.90 1017.05 1016.63 1016.31 1015.82 1016.03 1016.18 1016.35 1016.70 1016.93 1017.36 1017.83 1017.84 1018.03 1018.31 1018.55 1018.73 1018.91 1019.08 1019.15 1019.28 1019.39 1019.43 1019.49 1019.59 1019.59 1019.53 1019.41 1019.28
1015.55 1015.80 1015.95 1015.86 1015.96 1015.99 1016.11 1016.23 1016.31 1016.33 1016.57 1016.51 1016.24 1016.01 1016.11 1016.23 1016.44 1016.98 1017.22 1017.38 1017.80 1017.99 1018.16 1018.59 1018.85 1019.10 1019.32 1019.46 1019.60 1019.68 1019.72 1019.79 1019.86 1019.93 1019.95 1019.94 1019.95 1019.91
1014.91 1014.97 1014.97 1015.32 1015.51 1015.54 1015.62 1015.75 1015.72 1015.78 1015.96 1016.20 1016.10 1015.82 1015.93 1016.08 1016.45 1016.90 1017.41 1017.83 1018.20 1018.29 1018.62 1018.87 1019.16 1019.44 1019.71 1019.89 1020.07 1020.16 1020.10 1020.09 1020.24 1020.37 1020.49 1020.51 1020.49 1020.47
1014.28 1014.36 1014.33 1014.46 1014.60 1014.74 1014.92 1015.00 1015.14 1015.35 1015.51 1015.74 1015.85 1015.86 1015.83 1015.83 1016.05 1016.69 1017.55 1018.15 1018.35 1018.27 1018.78 1019.19 1019.45 1019.76 1020.04 1020.28 1020.52 1020.76 1020.71 1020.67 1020.76 1020.91 1020.98 1021.02 1021.02 1021.07
1013.52 1013.44 1013.45 1013.52 1013.61 1013.78 1014.17 1014.29 1014.49 1014.73 1015.05 1015.29 1015.48 1015.63 1015.63 1015.69 1015.76 1016.28 1017.10 1017.79 1018.29 1018.60 1019.09 1019.43 1019.59 1019.88 1020.17 1020.59 1020.82 1020.91 1021.06 1021.20 1021.44 1021.56 1021.55 1021.54 1021.53 1021.54
1012.70 1012.70 1012.73 1012.83 1012.90 1012.93 1013.04 1013.35 1013.60 1013.98 1014.25 1014.65 1014.81 1015.03 1015.05 1015.06 1015.33 1015.86 1016.61 1017.51 1018.22 1018.22 1018.73 1019.50 1019.65 1019.96 1020.28 1020.35 1020.94 1021.20 1021.39 1021.51 1021.82 1022.06 1022.15 1022.15 1022.11 1022.07
1011.72 1011.72 1011.80 1011.85 1012.10 1012.37 1012.43 1012.46 1012.82 1013.06 1013.11 1013.53 1013.95 1014.00 1014.24 1014.24 1014.77 1015.46 1015.96 1016.50 1016.96 1017.50 1018.02 1019.21 1019.61 1019.98 1020.06 1020.59 1021.00 1021.55 1021.58 1021.79 1022.02 1022.28 1022.37 1022.41 1022.51 1022.53
1010.75 1010.76 1010.94 1010.99 1011.16 1011.46 1011.82 1012.03 1012.12 1012.27 1012.65 1012.89 1012.82 1012.78 1012.92 1013.38 1013.89 1014.32 1014.98 1016.21 1016.89 1017.35 1017.47 1018.49 1019.36 1020.07 1020.50 1020.76 1021.04 1021.46 1021.77 1021.91 1022.09 1022.26 1022.43 1022.63 1022.63 1022.73
1010.09 1010.00 1010.08 1010.19 1010.19 1010.44 1011.01 1011.44 1011.69 1011.99 1012.13 1012.10 1012.10 1012.08 1012.31 1012.73 1013.32 1014.25 1015.33 1016.00 1017.00 1017.28 1017.43 1017.81 1018.96 1019.87 1020.55 1021.34 1021.42 1021.45 1021.81 1021.98 1022.06 1022.22 1022.40 1022.55 1022.71 1022.94
1009.39 1009.23 1009.24 1009.31 1009.39 1009.65 1010.24 1010.55 1011.07 1011.01 1011.80 1012.11 1012.14 1012.34 1012.51 1012.91 1013.27 1013.53 1014.42 1015.31 1016.28 1017.20 1017.15 1017.61 1018.75 1019.44 1020.63 1021.23 1021.39 1021.58 1021.99 1022.00 1022.08 1022.30 1022.41 1022.67 1022.83 1023.03
1008.65 1008.28 1008.30 1008.51 1008.79 1008.96 1009.18 1009.56 1009.50 1010.33 1011.56 1011.95 1012.02 1012.53 1012.98 1013.60 1013.89 1014.30 1014.74 1015.28 1016.18 1017.14 1017.23 1017.76 1018.50 1019.16 1019.73 1020.95 1021.51 1021.60 1022.11 1022.35 1022.16 1022.09 1022.19 1022.43 1022.51 1022.71
1008.04 1007.53 1007.34 1007.70 1007.94 1008.30 1008.84 1008.72 1009.21 1009.63 1010.67 1011.59 1011.38 1013.10 1013.27 1012.97 1014.01 1014.66 1015.11 1015.60 1016.54 1017.35 1017.43 1017.75 1018.25 1018.50 1019.22 1020.50 1021.35 1021.90 1022.11 1022.25 1022.19 1022.22 1022.12 1021.97 1022.04 1022.10
1007.26 1007.20 1006.99 1006.92 1007.46 1008.09 1008.46 1008.70 1009.44 1010.11 1010.84 1012.06 1013.11 1013.89 1014.92 1015.08 1014.15 1014.78 1016.07 1016.07 1017.20 1018.09 1017.22 1017.52 1017.61 1018.35 1018.82 1019.64 1020.67 1021.49 1021.99 1022.12 1021.98 1021.78 1021.79 1021.99 1022.11 1022.11
1006.31 1006.59 1006.88 1007.00 1007.47 1007.78 1008.34 1009.04 1009.43 1010.07 1010.86 1012.09 1013.00 1013.90 1015.22 1015.28 1016.50 1016.99 1016.42 1017.41 1017.96 1018.22 1017.93 1017.93 1018.25 1018.21 1019.16 1019.58 1020.01 1021.34 1021.63 1022.08 1021.99 1022.07 1022.28 1022.24 1022.16 1022.11
1005.56 1005.93 1006.46 1006.96 1007.55 1008.19 1008.78 1009.35 1009.84 1010.56 1011.45 1012.49 1013.44 1014.49 1015.53 1016.44 1016.39 1017.80 1017.27 1018.42 1018.51 1018.75 1018.80 1019.10 1018.98 1019.07 1019.65 1019.92 1020.80 1021.25 1021.85 1022.08 1022.18 1022.39 1022.43 1022.43 1022.33 1022.27
1005.53 1005.96 1006.61 1007.09 1007.73 1008.52 1009.15 1009.85 1010.49 1011.16 1012.08 1012.92 1013.82 1014.81 1015.59 1017.07 1016.89 1017.63 1017.57 1018.20 1018.79 1018.97 1019.27 1019.66 1019.78 1020.09 1020.45 1020.93 1020.85 1021.52 1021.96 1022.26 1022.30 1022.32 1022.53 1022.78 1022.83 1022.29
1006.45 1006.60 1007.18 1007.72 1008.38 1009.15 1009.59 1010.52 1011.39 1012.07 1012.88 1013.44 1014.27 1015.41 1016.30 1016.79 1017.21 1017.69 1017.67 1017.90 1018.46 1018.83 1019.76 1020.19 1020.37 1020.43 1020.85 1021.48 1021.67 1021.68 1021.94 1022.22 1022.32 1022.62 1022.85 1023.11 1023.08 1022.41
1007.95 1008.58 1008.53 1008.79 1009.36 1010.08 1010.65 1011.40 1012.33 1012.99 1013.91 1014.66 1015.27 1015.81 1016.45 1016.73 1016.99 1017.67 1017.92 1018.07 1018.54 1019.39 1020.03 1020.27 1020.34 1020.27 1020.72 1021.32 1021.81 1021.93 1021.65 1022.02 1022.43 1022.92 1023.15 1023.01 1022.63 1022.05
1010.05 1010.15 1010.58 1010.13 1010.59 1011.14 1012.06 1012.43 1013.16 1014.12 1014.91 1015.53 1015.91 1015.99 1016.36 1016.54 1017.16 1017.55 1018.20 1018.64 1019.12 1019.64 1020.34 1020.72 1020.62 1020.39 1020.92 1021.17 1021.83 1022.34 1022.21 1022.11 1022.20 1022.59 1022.81 1022.89 1022.71 1022.57
1011.55 1011.73 1012.38 1012.67 1012.73 1013.19 1013.80 1013.74 1014.68 1015.10 1015.52 1015.74 1015.91 1016.05 1016.23 1016.50 1017.26 1017.76 1018.27 1018.72 1019.38 1019.88 1020.53 1020.95 1020.99 1020.97 1021.42 1021.86 1022.56 1022.79 1022.75 1022.47 1022.32 1022.21 1022.15 1022.17 1022.38 1022.45
1013.09 1013.07 1013.42 1013.78 1014.01 1014.32 1014.54 1014.86 1014.97 1015.35 1015.51 1015.60 1015.87 1016.12 1016.45 1017.12 1017.35 1017.89 1018.38 1018.60 1019.40 1020.38 1020.75 1021.23 1021.43 1021.35 1022.02 1022.34 1022.67 1022.88 1022.90 1022.83 1022.69 1022.37 1022.19 1022.02 1021.99 1021.84
Thickness
5773 5773 5771 5773 5772 5770 5768 5765 5759 5753 5756 5768 5768 5777 5777 5774 5771 5768 5766 5764 5761 5757 5754 5752 5750 5748 5745 5743 5741 5739 5738 5737 5736 5735 5734 5733 5733 5733
5771 5772 5771 5772 5773 5773 5770 5767 5764 5760 5755 5765 5769 5774 5773 5772 5770 5766 5764 5759 5755 5754 5751 5748 5746 5743 5740 5737 5735 5733 5732 5731 5729 5727 5726 5725 5725 5724
5767 5767 5768 5770 5769 5770 5770 5768 5764 5762 5757 5764 5768 5773 5770 5767 5766 5762 5760 5756 5750 5748 5747 5744 5741 5738 5735 5732 5730 5728 5726 5724 5721 5719 5717 5716 5714 5713
5764 5764 5764 5767 5767 5768 5768 5767 5765 5764 5760 5758 5764 5765 5764 5763 5761 5756 5753 5751 5746 5743 5741 5738 5734 5731 5728 5725 5722 5720 5718 5716 5713 5711 5708 5706 5703 5701
5763 5765 5766 5765 5763 5764 5765 5765 5765 5765 5762 5759 5759 5763 5762 5761 5756 5753 5748 5744 5739 5737 5734 5731 5727 5723 5719 5716 5713 5710 5709 5708 5705 5701 5696 5693 5690 5688
5763 5764 5766 5766 5764 5763 5764 5765 5764 5762 5761 5757 5756 5757 5758 5757 5755 5748 5740 5736 5733 5731 5727 5722 5718 5714 5711 5706 5702 5698 5697 5695 5692 5687 5684 5681 5677 5674
5758 5762 5765 5766 5767 5766 5764 5763 5763 5761 5758 5755 5752 5751 5751 5751 5750 5746 5739 5733 5727 5724 5718 5713 5710 5707 5702 5695 5691 5688 5685 5682 5678 5673 5669 5666 5664 5661
5755 5758 5761 5762 5763 5763 5765 5764 5764 5759 5756 5753 5751 5748 5748 5750 5749 5744 5736 5727 5719 5718 5713 5705 5702 5697 5693 5689 5683 5678 5674 5670 5663 5658 5654 5651 5649 5647
5754 5757 5759 5762 5760 5759 5759 5760 5760 5760 5760 5755 5750 5750 5747 5748 5744 5738 5733 5729 5722 5717 5711 5697 5693 5688 5685 5679 5672 5665 5661 5655 5650 5645 5642 5640 5636 5633
5753 5756 5757 5758 5759 5756 5753 5753 5755 5756 5753 5751 5752 5751 5751 5747 5743 5740 5732 5720 5713 5708 5705 5693 5685 5678 5671 5666 5661 5653 5648 5642 5638 5635 5631 5627 5625 5622
5751 5754 5754 5755 5757 5753 5749 5748 5747 5748 5747 5747 5747 5747 5746 5743 5737 5729 5717 5711 5700 5698 5695 5689 5679 5670 5660 5652 5647 5643 5637 5632 5629 5625 5622 5620 5618 5614
5747 5749 5750 5752 5752 5748 5744 5743 5741 5747 5738 5736 5737 5736 5734 5730 5727 5724 5715 5706 5694 5686 5686 5679 5669 5662 5650 5642 5637 5632 5625 5622 5620 5617 5615 5612 5609 5605
5742 5746 5748 5745 5742 5741 5741 5744 5747 5741 5729 5724 5725 5720 5717 5712 5709 5703 5697 5693 5686 5677 5675 5669 5660 5654 5647 5634 5626 5623 5614 5611 5613 5615 5612 5607 5603 5598
5735 5741 5744 5740 5737 5736 5736 5740 5738 5735 5726 5711 5708 5704 5705 5697 5693 5686 5683 5679 5671 5662 5662 5657 5650 5647 5638 5626 5619 5611 5609 5607 5609 5607 5606 5604 5600 5595
5730 5731 5733 5734 5729 5727 5727 5728 5724 5723 5717 5706 5695 5689 5677 5675 5683 5675 5666 5662 5654 5646 5652 5646 5643 5635 5630 5622 5614 5609 5606 5604 5604 5603 5600 5594 5589 5584
5724 5723 5721 5720 5719 5719 5717 5715 5716 5711 5706 5696 5688 5679 5667 5666 5656 5647 5652 5641 5634 5633 5635 5632 5628 5625 5617 5617 5618 5607 5603 5597 5597 5593 5588 5583 5578 5572
5716 5715 5712 5710 5707 5704 5702 5700 5699 5695 5689 5682 5675 5667 5657 5647 5647 5633 5635 5625 5620 5617 5616 5614 5613 5611 5609 5611 5605 5602 5595 5591 5587 5582 5577 5571 5565 5558
5704 5702 5698 5697 5695 5690 5687 5683 5681 5678 5674 5669 5663 5656 5647 5633 5634 5627 5627 5620 5614 5611 5606 5601 5598 5599 5598 5597 5598 5591 5586 5581 5577 5573 5564 5557 5549 5546
5683 5685 5682 5680 5677 5673 5672 5667 5663 5660 5655 5654 5649 5640 5631 5626 5624 5619 5618 5614 5609 5606 5596 5589 5591 5594 5592 5587 5584 5582 5577 5572 5567 5559 5551 5542 5535 5531
5662 5659 5662 5662 5659 5655 5653 5649 5644 5642 5638 5634 5631 5628 5622 5619 5618 5611 5608 5606 5600 5590 5587 5588 5588 5590 5587 5581 5576 5572 5570 5563 5555 5546 5536 5530 5526 5521
5639 5639 5638 5639 5637 5635 5632 5633 5630 5624 5621 5619 5617 5614 5612 5613 5606 5602 5595 5592 5589 5587 5583 5579 5581 5583 5580 5576 5568 5561 5558 5553 5547 5537 5528 5519 5511 5502
5625 5622 5618 5614 5615 5612 5612 5614 5610 5611 5611 5609 5609 5608 5606 5603 5600 5597 5595 5593 5588 5584 5577 5572 5574 5574 5569 5563 5555 5549 5545 5542 5535 5529 5522 5513 5503 5491
5609 5609 5607 5603 5601 5600 5602 5602 5604 5603 5603 5602 5600 5602 5603 5598 5598 5595 5592 5594 5586 5574 5572 5568 5565 5565 5558 5553 5547 5540 5537 5530 5522 5517 5511 5503 5493 5486